SCP
0 0 1 1 1 0 0 0 0 0 0 0 0 0 0 0 0 0 0 0 0 0 0 0 0 0 0 0 0 0 0 0 0 0 0 0 0 0 0 0 0 0 0
0 0 0 0 0 0 0 0 0 0 0 0 0 0 0 0 0 0 0 0 0 0 0 0 0 0 0 0 0 0 0 0 0 0 0 0 0 0 0 0 0 0 0
0 0 0 0 0 0 0 0 0 0 0 0 0 0 0 0 0 0 0 0 0 0 0 0 0 0 0 0 0 0 0 0 0 0 0 0 0 0 0 0 0 0 0
0 0 0 0 0 0 0 0 0 0 0 0 0 0 0 0 0 0 0 0 0 0 0 0 0 0 0 0 0 0 0 0 0 0 0 0 0 0 0 0 0 0 0
0 0 0 0 0 0 0 0 0 0 0 0 0 0 0 0 0 0 0 0 0 0 0 0 0 0 0 0 0 0 0 0 0 0 0 0 0 0 0 0 0 0 0
0 0 0 0 0 0 0 0 0 0 0 0 0 0 0 0 0 0 0 0 0 0 0 0 0 0 0 0 0 0 0 0 0 0 0 0 0 0 0 0 0 0 0
0 0 0 0 0 0 0 0 0 0 0 0 0 0 0 0 0 0 0 0 0 0 0 0 0 0 0 0 0 0 0 0 0 0 0 0 0 0 0 0 0 0 0
0 0 0 0 0 0 0 0 0 0 0 0 0 0 0 0 0 0 0 0 0 0 0 0 0 0 0 0 0 0 0 0 0 0 0 0 0 0 0 0 0 0 0
0 0 0 0 0 0 0 0 0 0 0 0 0 0 0 0 0 0 0 0 0 0 0 0 0 0 0 0 0 0 0 0 0 0 0 0 0 0 0 0 0 0 0
0 0 0 0 0 0 0 0 0 0 0 0 0 0 0 0 0 0 0 0 0 0 0 0 0 0 0 0 0 0 0 0 0 0 0 0 0 0 0 0 0 0 0
0 0 0 0 0 0 0 0 0 0 0 0 0 0 0 0 0 0 0 0 0 0 0 0 0 0 0 0 0 0 0 0 0 0 0 0 0 0 0 0 0 0 0
0 0 0 0 0 0 0 0 0 0 0 0 0 0 0 0 0 0 0 0 0 0 0 0 0 0 0 0 0 0 0 0 0 0 0 0 0 0 0 0 0 0 0
0 0 0 0 0 0 0 0 0 0 0 0 0 0 0 0 0 0 0 0 0 0 0 0 0 0 0 0 0 0 0 0 0 0 0 0 0 0 0 0 0 0 0
0 0 0 0 0 0 0 0 0 0 0 0 0 0 0 0 0 0 0 0 0 0 0 0 0 0 0 0 0 0 0 0 0 0 0 0 0 0 0 0 0 0 0
0 0 0 0 0 0 0 0 0 0 0 0 0 0 0 0 0 0 0 0 0 0 0 0 0 0 0 0 0 0 0 0 0 0 0 0 0 0 0 0 0 0 0
0 0 0 0 0 0 0 0 0 0 0 0 0 0 0 0 0 0 0 0 0 0 0 0 0 0 0 0 0 0 0 0 0 0 0 0 0 0 0 0 0 0 0
0 0 0 0 0 0 0 0 0 0 0 0 0 0 0 0 0 0 0 0 0 0 0 0 0 0 0 0 0 0 0 0 0 0 0 0 0 0 0 0 0 0 0
0 0 0 0 0 0 0 0 0 0 0 0 0 0 0 0 0 0 0 0 0 0 0 0 0 0 0 0 0 0 0 0 0 0 0 0 0 0 0 0 0 0 0
0 0 0 0 0 0 0 0 0 0 0 0 0 0 0 0 0 0 0 0 0 0 0 0 0 0 0 0 0 0 0 0 0 0 0 0 0 0 0 0 0 0 0
0 0 0 0 0 0 0 0 0 0 0 0 0 0 0 0 0 0 0 0 0 0 0 0 0 0 0 0 0 0 0 0 0 0 0 0 0 0 0 0 0 0 0
0 0 0 0 0 0 0 0 0 0 0 0 0 0 0 0 0 0 0 0 0 0 0 0 0 0 0 0 0 0 0 0 0 0 0 0 0 0 0 0 0 0 0
0 0 0 0 0 0 0 0 0 0 0 0 0 0 0 0 0 0 0 0 0 0 0 0 0 0 0 0 0 0 0 0 0 0 0 0 0 0 0 0 0 0 0
0 0 0 0 0 0 0 0 0 0 0 0 0 0 0 0 0 0 0 0 0 0 0 0 0 0 0 0 0 0 0 0 0 0 0 0 0 0 0 0 0 0 0
0 0 0 0 0 0 0 0 0 0 0 0 0 0 0 0 0 0 0 0 0 0 0 0 0 0 0 0 0 0 0 0 0 0 0 0 0 0 0 0 0 0 0
0 0 0 0 0 0 0 0 0 0 0 0 0 0 0 0 0 0 0 0 0 0 0 0 0 0 0 0 0 0 0 0 0 0 0 0 0 0 0 0 0 0 0
0 0 0 0 0 0 0 0 0 0 0 0 0 0 0 0 0 0 0 0 0 0 0 0 0 0 0 0 0 0 0 0 0 0 0 0 0 0 0 0 0 0 0
Wind_Speed
11 11 11 11 10 10 10 10 9 8 8 9 8 8 8 8 7 7 7 7 8 7 6 7 6 5 5 4 4 4 4 2 1 1 2 3 3 4 6 5 5 5 6
10 11 10 10 10 10 10 9 9 9 8 8 8 8 8 7 7 7 7 7 7 6 6 6 5 4 5 4 4 4 3 2 1 2 2 2 3 4 5 6 5 5 5
10 10 10 10 9 9 9 8 8 8 8 8 8 8 7 6 6 6 6 6 5 5 4 4 4 4 4 3 3 3 2 2 1 1 2 2 2 3 4 4 5 4 6
10 10 9 8 8 8 8 7 7 7 7 7 7 6 6 6 5 5 5 5 5 4 4 3 3 3 2 2 2 2 1 2 1 1 2 2 3 3 3 3 5 5 5
9 9 8 7 7 7 7 7 6 7 7 6 6 6 5 5 4 4 4 4 4 4 4 4 3 3 3 2 2 1 1 1 1 1 2 2 3 3 3 3 4 6 4
8 7 7 7 7 7 6 6 6 6 6 6 6 6 6 4 6 6 4 4 4 4 4 4 3 4 5 6 6 4 2 2 2 2 2 3 4 3 3 3 3 4 4
7 6 6 6 6 5 5 6 5 5 5 5 5 5 5 5 7 7 7 4 4 3 3 3 3 3 5 4 6 6 4 4 4 3 3 4 3 3 3 4 3 3 4
6 5 5 5 5 5 5 5 4 3 3 3 3 4 4 5 7 7 7 5 4 3 3 2 3 4 4 5 5 5 5 4 3 3 5 6 6 6 5 4 4 5 6
5 4 4 4 4 4 4 3 2 2 2 2 2 3 4 4 7 6 5 3 3 4 4 3 4 4 6 6 4 5 6 5 3 4 6 7 9 8 5 3 3 2 4
4 3 3 4 4 4 3 2 2 2 2 2 3 3 3 4 6 7 5 2 3 3 4 4 4 6 7 6 3 3 5 5 7 7 6 6 4 4 2 3 3 2 2
3 3 4 3 3 3 3 2 3 3 3 3 3 3 3 3 5 7 6 2 2 3 3 4 4 8 8 6 2 2 4 5 5 5 5 5 5 4 3 2 3 3 3
3 4 4 3 3 3 4 3 3 3 3 3 3 3 3 3 4 5 6 4 3 2 3 3 5 8 7 6 4 4 4 3 2 3 4 5 5 5 5 5 4 4 6
4 4 3 4 3 3 3 3 3 3 3 2 2 2 2 2 3 5 6 6 5 2 2 5 6 7 6 5 7 7 5 4 3 4 4 4 4 5 5 4 3 2 3
3 3 3 3 3 4 3 2 2 2 2 2 1 1 1 2 3 3 4 4 4 3 3 4 5 6 6 5 5 5 4 3 3 3 4 4 4 4 3 3 3 4 3
3 2 2 3 3 3 3 2 2 1 1 1 1 1 0 1 3 5 4 3 3 2 2 3 4 5 5 5 5 5 5 5 5 4 4 5 5 5 4 3 3 2 2
2 2 1 2 2 2 2 2 2 0 0 2 3 2 2 3 5 6 6 5 4 2 3 3 3 3 4 4 5 5 5 5 5 5 4 4 5 5 4 4 3 2 3
2 2 1 1 2 2 1 1 1 2 2 1 1 2 3 3 4 4 4 4 6 5 3 3 3 3 3 3 4 4 4 5 4 4 4 5 5 4 3 4 4 3 4
2 2 2 2 2 2 2 1 1 0 1 2 2 3 3 3 3 4 2 3 4 4 2 2 2 3 3 3 4 4 4 5 4 5 5 5 5 4 4 4 4 4 4
1 1 1 1 1 2 1 1 1 1 0 1 1 2 4 3 4 5 4 2 2 2 2 2 2 2 3 3 3 4 4 4 5 5 4 5 5 4 4 5 5 5 4
0 1 2 1 1 1 1 2 1 1 1 0 1 1 2 2 2 3 2 1 1 1 1 2 2 2 3 3 4 4 4 4 5 4 5 5 5 4 5 6 5 5 4
0 0 1 2 1 2 2 2 2 1 1 1 1 1 1 0 0 1 1 1 1 1 1 2 2 3 3 3 4 4 5 5 4 5 5 5 5 5 5 5 5 4 4
1 1 1 1 1 1 2 2 1 1 1 1 1 1 1 1 0 1 1 1 1 1 1 1 2 2 3 3 4 4 5 5 5 5 5 5 5 5 5 5 5 5 4
1 1 1 1 1 2 2 1 1 1 1 1 1 0 0 1 1 1 1 1 1 1 1 1 2 2 2 3 3 3 4 5 5 6 6 6 5 5 5 5 6 5 5
1 1 1 1 1 2 2 1 1 1 1 1 1 1 1 1 1 1 1 1 1 0 0 1 1 3 5 4 3 3 4 5 6 5 6 6 6 5 5 5 5 5 5
1 1 1 2 2 2 2 2 1 1 1 1 1 1 1 1 1 1 1 1 1 1 0 1 1 3 5 6 6 6 7 7 7 6 5 4 5 5 5 5 4 5 5
1 1 2 2 2 2 2 2 2 2 2 2 2 2 2 2 2 2 1 1 1 1 1 1 2 3 5 5 7 8 8 8 8 8 5 4 4 4 4 3 5 4 5
Wind_Direction
74 79 81 82 84 83 82 82 81 78 76 77 76 75 72 69 69 74 72 70 71 64 60 67 63 59 58 48 49 50 49 57 72 321 299 307 315 325 333 331 327 323 320
77 80 80 81 82 83 82 79 79 78 74 76 77 75 72 68 66 72 74 69 70 67 62 65 61 64 58 49 49 46 41 43 49 337 320 318 308 315 319 318 323 326 320
79 81 81 79 81 83 83 80 79 80 77 74 74 74 71 67 65 66 71 70 68 66 65 68 65 65 55 43 44 37 25 31 35 323 311 306 299 312 323 319 325 324 325
81 82 81 80 82 83 83 80 78 80 80 77 75 73 69 65 62 62 67 67 62 56 55 59 64 68 56 31 30 19 11 17 10 331 307 304 295 304 308 322 331 334 327
86 83 82 84 83 83 82 82 79 77 79 79 77 69 61 59 54 64 64 66 60 51 43 37 33 49 42 22 3 328 323 339 340 328 320 312 309 319 324 321 315 323 313
86 85 84 83 82 81 82 83 80 76 72 71 69 66 56 48 47 61 73 63 55 50 37 21 16 25 14 11 0 346 308 271 286 290 293 300 295 289 293 306 316 331 317
86 87 87 87 84 81 87 83 82 79 76 70 66 65 57 38 45 53 63 67 57 45 32 13 6 4 4 352 344 346 339 310 258 235 264 275 278 277 299 305 304 302 287
90 91 92 93 91 86 84 83 81 81 82 78 69 63 54 35 42 52 57 57 51 35 18 2 344 335 342 339 333 338 335 323 297 257 251 265 267 272 260 263 292 295 281
94 92 97 100 99 91 86 84 87 94 85 75 71 64 53 25 30 44 53 43 34 14 359 351 341 329 326 335 337 337 334 330 319 306 281 278 278 278 260 232 269 300 318
95 97 100 103 104 98 92 81 80 94 92 84 70 60 55 34 27 38 45 39 20 356 344 341 341 336 330 331 320 322 326 324 335 337 336 334 324 322 294 227 247 273 303
100 94 88 89 96 97 83 63 72 81 77 71 69 54 44 34 25 29 32 35 3 339 337 336 334 338 340 342 328 283 283 298 314 323 328 337 343 347 347 320 238 230 254
88 86 81 78 81 97 92 75 68 81 80 68 66 52 29 19 19 12 13 11 356 328 323 322 323 339 359 14 17 0 349 352 350 351 352 349 344 339 332 324 297 244 238
83 78 72 71 67 83 98 92 74 72 80 71 66 51 7 356 354 359 1 357 356 346 313 321 339 3 21 27 25 26 26 22 13 5 349 331 315 306 308 319 328 316 277
90 79 76 78 75 68 71 83 87 85 83 80 79 51 353 339 342 346 345 346 354 3 351 348 7 26 36 26 18 20 22 16 10 351 329 317 319 329 343 348 342 344 339
89 81 77 84 98 88 72 66 86 110 186 166 180 185 207 324 314 323 326 330 330 332 349 15 22 17 15 11 7 6 7 11 10 357 347 342 344 349 349 343 338 337 339
100 92 96 106 109 110 102 58 33 91 120 177 189 198 249 266 301 328 346 356 7 50 63 41 25 16 11 3 357 353 358 2 355 347 346 346 343 342 340 345 344 341 334
145 151 143 143 149 154 151 131 30 2 15 21 282 268 273 299 326 340 2 43 50 61 60 39 20 7 359 356 354 350 345 341 337 341 345 344 340 339 343 348 350 343 337
144 164 166 172 171 172 177 171 158 102 3 346 350 355 353 353 1 3 22 57 42 39 38 23 7 356 352 350 349 344 338 340 346 346 345 344 344 339 342 345 345 338 327
156 175 163 162 166 166 164 157 153 148 151 321 340 359 13 23 41 39 47 57 44 24 15 5 353 348 346 344 342 339 337 338 341 340 342 343 342 338 337 338 335 333 332
192 208 167 157 153 155 155 157 158 156 159 240 309 325 344 21 25 15 27 29 26 7 350 344 343 345 343 341 339 338 338 340 343 342 339 338 335 331 331 333 333 334 330
164 147 149 151 162 164 162 166 166 167 189 229 266 284 240 109 358 348 353 352 339 329 327 328 332 338 342 340 339 339 338 335 337 334 332 332 332 331 327 326 328 331 331
156 169 169 172 163 160 162 166 167 182 209 230 275 328 129 142 272 304 313 318 319 310 310 311 326 338 339 338 335 331 329 330 334 333 328 325 324 325 327 334 341 342 345
167 166 148 146 150 154 148 154 169 185 204 228 246 274 294 269 276 282 291 302 306 312 333 332 331 338 341 335 329 322 318 318 317 314 313 315 318 322 327 331 338 341 347
175 176 164 153 146 149 156 165 175 184 195 221 239 253 263 271 283 285 283 285 277 302 341 349 342 342 345 342 332 326 317 309 304 296 295 296 304 310 317 325 335 342 343
183 188 180 176 173 172 173 180 189 196 205 221 231 241 248 258 267 275 275 256 244 260 309 351 344 342 343 343 342 337 329 320 314 309 296 288 297 306 315 329 341 349 355
197 195 193 185 182 182 185 193 203 209 219 229 233 235 237 248 259 264 250 234 231 243 271 311 335 344 344 342 342 339 334 332 330 326 315 303 313 327 335 341 356 1 5